Flag for U.S.A. Weather past 2 weeks in Medford, Oregon, U.S.A.

Now
64 °F

Overcast.


Feels Like: 64 °F
Forecast: 52 / 75 °F
Wind: 7 mph from North

Location: Rogue Valley International Airport

Current Time: Sep 2, 2015 at 10:38:24 PM

Latest Report: Sep 2, 2015 at 9:53 PM


Visibility: 10 mi

Pressure: 29.95 "Hg

Humidity: 50%

Dew point: 45 °F

Location of MedfordLocation

Historic Weather in Medford — Graph

°F

Medford temperature yesterday

Maximum temperature yesterday: 85 °F (at 3:53 PM)
Minimum temperature yesterday: 55 °F (at 6:53 AM)
Average temperature yesterday: 70 °F

Past Weeks' High & Low Weather Summary

 TemperatureHumidityPressure
High101 °F (Aug 19, 3:53 PM)83% (Aug 31, 5:53 AM)30.09 "Hg (Aug 31, 5:53 AM)
Low52 °F (Aug 31, 5:53 AM)11% (Aug 19, 5:53 PM)29.62 "Hg (Aug 29, 1:53 AM)
Average74 °F42%29.90 "Hg
* Reported Aug 18 8:53 PM — Sep 2 8:53 PM, Medford, Weather by CustomWeather, © 2015

Note: Actual official high and low records may vary slightly from our data, if they occured in-between our weather recording intervals... More about our weather records

Advertising

Medford weather history for previous 24 hours

 ConditionsComfort  
Time TempWeatherWind HumidityBarometerVisibility
8:53 PM
Wed, Sep 2
65 °FMostly cloudy.10 mph47%29.93 "Hg10 mi
7:53 PM67 °FMostly cloudy.15 mph47%29.90 "Hg10 mi
6:53 PM70 °FOvercast.17 mph44%29.87 "Hg10 mi
5:53 PM72 °FOvercast.12 mph41%29.86 "Hg10 mi
4:53 PM73 °FBroken clouds.14 mph36%29.86 "Hg10 mi
3:53 PM72 °FPartly sunny.5 mph40%29.87 "Hg10 mi
2:53 PM71 °FMostly cloudy.5 mph42%29.88 "Hg10 mi
1:53 PM71 °FMostly cloudy.12 mph44%29.90 "Hg10 mi
12:53 PM69 °FMostly cloudy.7 mph53%29.91 "Hg10 mi
11:53 AM68 °FBroken clouds.10 mph57%29.92 "Hg10 mi
10:53 AM67 °FOvercast.9 mph55%29.93 "Hg10 mi
9:53 AM65 °FScattered clouds.3 mph54%29.93 "Hg10 mi
8:53 AM62 °FMore clouds than sun.No wind60%29.93 "Hg10 mi
7:53 AM60 °FOvercast.3 mph62%29.93 "Hg10 mi
6:53 AM59 °FOvercast.5 mph64%29.92 "Hg10 mi
5:53 AM58 °FPassing clouds.6 mph65%29.91 "Hg10 mi
4:53 AM58 °FClear.3 mph67%29.91 "Hg10 mi
3:53 AM59 °FClear.3 mph64%29.91 "Hg10 mi
2:53 AM62 °FClear.No wind62%29.91 "Hg10 mi
1:53 AM63 °FClear.6 mph60%29.91 "Hg10 mi
12:53 AM64 °FClear.6 mph58%29.89 "Hg10 mi
11:53 PM
Tue, Sep 1
67 °FClear.7 mph51%29.89 "Hg10 mi
10:53 PM69 °FClear.10 mph45%29.87 "Hg10 mi
Weather by CustomWeather, © 2015

See weather overviewHow to use our weather pages